Flippin, AR

4:25 AM CDT on August 24, 2017 (GMT -0500)
Marion County Regional

Weather History for KFLP - October, 2012

Change the Weather History Date:

Wednesday, October 31, 2012

  Actual Average Record
Temperature  
Mean Temperature 52 °F -  
Max Temperature 66 °F 64 °F 80 °F (2000)
Min Temperature 37 °F 46 °F 33 °F (2011)
Degree Days  
Heating Degree Days 14    
Growing Degree Days 2 (Base 50)    
Moisture  
Dew Point 33 °F    
Average Humidity 52    
Maximum Humidity 81    
Minimum Humidity 31    
Precipitation  
Precipitation 0.00 in - - ()
Sea Level Pressure  
Sea Level Pressure 29.99 in    
Wind  
Wind Speed 2 mph (NW)    
Max Wind Speed 12 mph    
Max Gust Speed -    
Visibility 10 miles    
Events      
Averages and records for this station are not official NWS values.
T = Trace of Precipitation, MM = Missing Value Source: NWS Daily Summary

Daily Weather History Graph

Daily Weather History Graph

Search for Another Location

Airport or City:

Trip Planner

Search our weather history database for the weather conditions in past years. The results will help you decide how hot, cold, wet, or windy it might be!

Date:

Astronomy

Oct. 31, 2012 Rise Set
Actual Time 7:32 AM CDT 6:14 PM CDT
Civil Twilight 7:06 AM CDT 6:41 PM CDT
Nautical Twilight 6:35 AM CDT 7:11 PM CDT
Astronomical Twilight 6:05 AM CDT 7:41 PM CDT
Moon 7:29 PM CDT (10/31) 9:11 AM CDT (10/31)
Length of Visible Light 11h 34m
Length of Day
10h 41m
Full, 97% of the Moon is Illuminated
Oct 31
Full
Nov 6
Last Quarter
Nov 13
New
Nov 20
First Quarter
Nov 28
Full

Hourly Weather History & Observations

Time (CDT) Temp. Dew Point Humidity Pressure Visibility Wind Dir Wind Speed Gust Speed Precip Events Conditions
12:16 AM 42.8 °F 33.8 °F 70% 29.96 in 10.0 mi Calm Calm - N/A   Clear
12:35 AM 42.8 °F 33.8 °F 70% 29.96 in 10.0 mi Calm Calm - N/A   Clear
12:55 AM 42.8 °F 33.8 °F 70% 29.97 in 10.0 mi Calm Calm - N/A   Clear
1:15 AM 41.0 °F 33.8 °F 76% 29.96 in 10.0 mi Calm Calm - N/A   Clear
1:55 AM 39.2 °F 32.0 °F 75% 29.97 in 10.0 mi Calm Calm - N/A   Clear
2:35 AM 37.4 °F 30.2 °F 75% 29.97 in 10.0 mi Calm Calm - N/A   Clear
2:55 AM 39.2 °F 32.0 °F 75% 29.98 in 10.0 mi Calm Calm - N/A   Clear
3:55 AM 39.2 °F 33.8 °F 81% 29.98 in 10.0 mi Calm Calm - N/A   Overcast
4:35 AM 39.2 °F 33.8 °F 81% 29.98 in 10.0 mi Calm Calm - N/A   Overcast
5:15 AM 39.2 °F 33.8 °F 81% 29.99 in 10.0 mi Calm Calm - N/A   Overcast
6:35 AM 39.2 °F 33.8 °F 81% 29.99 in 10.0 mi Calm Calm - N/A   Mostly Cloudy
6:55 AM 39.2 °F 32.0 °F 75% 29.99 in 10.0 mi Calm Calm - N/A   Partly Cloudy
7:15 AM 39.2 °F 32.0 °F 75% 29.99 in 10.0 mi Calm Calm - N/A   Partly Cloudy
7:55 AM 39.2 °F 32.0 °F 75% 30.00 in 10.0 mi Calm Calm - N/A   Scattered Clouds
8:15 AM 39.2 °F 32.0 °F 75% 30.01 in 10.0 mi Calm Calm - N/A   Clear
10:15 AM 51.8 °F 32.0 °F 47% 30.04 in 10.0 mi West 4.6 mph - N/A   Clear
10:35 AM 53.6 °F 30.2 °F 41% 30.03 in 10.0 mi NNW 3.5 mph - N/A   Clear
10:55 AM 53.6 °F 28.4 °F 38% 30.04 in 10.0 mi NNW 4.6 mph - N/A   Clear
11:35 AM 57.2 °F 30.2 °F 36% 30.03 in 10.0 mi NW 4.6 mph - N/A   Clear
11:55 AM 59.0 °F 30.2 °F 34% 30.03 in 10.0 mi NNE 5.8 mph - N/A   Clear
12:15 PM 60.8 °F 30.2 °F 31% 30.03 in 10.0 mi NW 6.9 mph - N/A   Clear
12:35 PM 60.8 °F 30.2 °F 31% 30.02 in 10.0 mi North 8.1 mph - N/A   Clear
12:55 PM 62.6 °F 33.8 °F 34% 30.01 in 10.0 mi NNW 9.2 mph - N/A   Clear
1:15 PM 62.6 °F 33.8 °F 34% 30.01 in 10.0 mi NW 9.2 mph - N/A   Clear
2:15 PM 64.4 °F 33.8 °F 32% 29.98 in 10.0 mi NNW 8.1 mph - N/A   Clear
3:35 PM 66.2 °F 35.6 °F 32% 29.97 in 10.0 mi NW 9.2 mph - N/A   Clear
3:55 PM 66.2 °F 35.6 °F 32% 29.97 in 8.0 mi NW 5.8 mph - N/A   Clear
4:15 PM 66.2 °F 35.6 °F 32% 29.97 in 10.0 mi West 11.5 mph - N/A   Clear
4:55 PM 66.2 °F 35.6 °F 32% 29.96 in 8.0 mi WNW 8.1 mph - N/A   Clear
5:15 PM 64.4 °F 35.6 °F 34% 29.96 in 8.0 mi WNW 8.1 mph - N/A   Clear
5:35 PM 64.4 °F 35.6 °F 34% 29.96 in 10.0 mi WNW 6.9 mph - N/A   Clear
6:15 PM 62.6 °F 33.8 °F 34% 29.96 in 10.0 mi WNW 4.6 mph - N/A   Partly Cloudy
6:35 PM 60.8 °F 35.6 °F 39% 29.97 in 10.0 mi NW 4.6 mph - N/A   Clear
7:15 PM 59.0 °F 35.6 °F 42% 29.98 in 10.0 mi NW 5.8 mph - N/A   Clear
7:55 PM 57.2 °F 33.8 °F 41% 29.98 in 10.0 mi NNW 4.6 mph - N/A   Clear
8:15 PM 57.2 °F 33.8 °F 41% 29.99 in 10.0 mi NNW 5.8 mph - N/A   Clear
8:35 PM 55.4 °F 33.8 °F 44% 29.99 in 10.0 mi NNW 4.6 mph - N/A   Clear
8:55 PM 55.4 °F 33.8 °F 44% 29.99 in 10.0 mi NNW 5.8 mph - N/A   Clear
9:35 PM 53.6 °F 33.8 °F 47% 30.01 in 10.0 mi NNW 4.6 mph - N/A   Clear
10:15 PM 53.6 °F 33.8 °F 47% 30.02 in 10.0 mi NNW 4.6 mph - N/A   Clear
11:15 PM 51.8 °F 32.0 °F 47% 30.02 in 10.0 mi Calm Calm - N/A   Clear
11:35 PM 48.2 °F 33.8 °F 58% 30.02 in 10.0 mi Calm Calm - N/A   Clear